Regional Weather Roundup
Issued by NWS

Home | Current Version | Previous Version | Graphics & Text | Print | Product List | Glossary On
Versions: 1 2 3 4 5 6 7 8 9 10 11 12 13 14 15 16 17 18 19 20 21 22 23 24 25 26 27
000
ASUS45 KCYS 291010
RWRWY

WYOMING REGIONAL WEATHER ROUNDUP
NATIONAL WEATHER SERVICE CHEYENNE WY
400 AM MDT WED MAR 29 2017

NOTE:  "FAIR" INDICATES FEW OR NO CLOUDS BELOW 12,000 FEET
WITH NO SIGNIFICANT WEATHER AND/OR OBSTRUCTIONS TO VISIBILITY.

WYZ001-291100-
YELLOWSTONE NATIONAL PARK

CITY           SKY/WX    TMP DP  RH WIND       PRES   REMARKS
LK YELLOWSTONE   N/A     23  21  92 CALM      30.21F
W YELLOWSTONE  NOT AVBL

$$
WYZ002>013-054>058-071-098>099-291100-
NORTHERN WYOMING

CITY           SKY/WX    TMP DP  RH WIND       PRES   REMARKS
JACKSON        FAIR      23  21  93 N5        30.21S WCI  17
CODY           FAIR      41  22  46 W12       30.10F
GREYBULL       FAIR      35  32  88 CALM      30.11S
WORLAND        FAIR      30  30 100 CALM      30.11F
SHERIDAN       FAIR      29  26  89 S7        30.08F WCI  22
BUFFALO        FAIR      35  25  66 W7        30.10F WCI  29
GILLETTE       FAIR      33  31  92 CALM      30.10S
HULETT         FAIR      36  34  93 W3        30.10S FOG
NEWCASTLE      CLOUDY    39  39 100 CALM      30.11F FOG

$$
WYZ014>020-022>026-101>103-291100-
CENTRAL WYOMING

CITY           SKY/WX    TMP DP  RH WIND       PRES   REMARKS
BIG PINEY      FAIR      25  20  81 N5        30.18S WCI  19
PINEDALE       FAIR      23  19  86 NW7       30.18S WCI  15
DUBOIS         FAIR      32  19  59 W15       30.15S WCI  22
LANDER         FAIR      34  25  69 SW8       30.12S WCI  27
RIVERTON       FAIR      29  28  96 NW6       30.13S WCI  23
CASPER         FAIR      26  25  96 W6        30.11F WCI  19
DOUGLAS        CLOUDY    38  35  89 NW10      30.12R WCI  31

$$
WYZ021-027>030-104>119-291100-
SOUTHERN WYOMING

CITY           SKY/WX    TMP DP  RH WIND       PRES   REMARKS
EVANSTON       FAIR      26  20  77 SW6       30.21F WCI  19
KEMMERER         N/A     28  23  80 W14       30.19F WCI  17
FORT BRIDGER   FAIR      29  27  90 SW9       30.24S WCI  21
ROCK SPRINGS   FAIR      28  23  81 SW9       30.17S WCI  19
DIXON            N/A     33  28  83 W6        30.15S WCI  27
RAWLINS        FAIR      25  22  88 NW6       30.13R WCI  18
SARATOGA       CLOUDY    32  32 100 CALM      30.14R
LARAMIE        CLOUDY    33  33 100 N8        30.09S WCI  26
CHEYENNE       CLOUDY    35  33  92 N12G18    30.09S WCI  27
TORRINGTON     CLOUDY    39  38  96 S3        30.11R
PINE BLUFFS    CLOUDY    34  34 100 NE6       30.11S WCI  29

$$




USA.gov is the U.S. government's official web portal to all federal, state and local government web resources and services.